FLOCK 2K-35 (42877 NORAD) Tracking and Keplerian Element Data

This shows tracking and keplerian element data for the satellite.

Feedback or suggestion? Click here.




ElementValue
Catalog42877
NameFLOCK 2K-35
Epoch Orbit27523
Epoch Day156.80672584
Epoch Year2022
RAAN358.4254
Inclination96.8079
Eccentricity0.0009585
Argument of Perigee226.9134
Mean Anonmoly133.1338
Mean Motion15.88401931
Decay Rate0.00568795
L11 42877U 17042BE 22156.80672584 .00568795 12368-3 20691-2 0 9991
L22 42877 96.8079 358.4254 0009585 226.9134 133.1338 15.88401931275235



Live tracking and technical data element details for FLOCK 2K-35 (NORAD 42877). FLOCK 2K-35 can be tracked NOW for your location showing map with azimuth and elevation plus other details from your city location.







IsCatalogInMostPopularTable: catalog: 42877, numindb: 662
Update: records affected: 1



GetName: 42877 FLOCK 2K-35

Hit Count: updated at: Mon, 17 Jun 2024 23:06:31 GMT